Regional Weather Roundup
Issued by NWS Newport/Morehead, NC

Current Version | Previous Version | Graphics & Text | Print | Product List | Glossary Off
Versions: 1 2 3 4 5 6 7 8 9 10 11 12 13 14 15 16 17 18 19 20 21 22 23 24 25 26 27 28 29 30 31 32 33 34 35 36 37 38 39 40 41 42 43 44 45 46 47 48 49 50

000
ASUS42 KMHX 040125
RWRMHX
WEATHER ROUNDUP FOR EASTERN NORTH CAROLINA
NATIONAL WEATHER SERVICE NEWPORT/MOREHEAD CITY NC
900 PM EDT TUE MAY 03 2016

NOTE: "FAIR" INDICATES FEW OR NO CLOUDS BELOW 12,000 FEET
WITH NO SIGNIFICANT WEATHER AND/OR OBSTRUCTIONS TO VISIBILITY

NCZ015>017-031-032-045>047-102-103-040200-
NORTH COAST

CITY           SKY/WX    TMP DP  RH WIND       PRES   REMARKS
EDENTON        RAIN      71  70  98 S13       29.73F
ELIZABETH CITY CLEAR     69  65  86 S7        29.75R
KITTY HAWK     CLOUDY    68  65  89 S8        29.75S
MANTEO         NOT AVBL

$$

NCZ045>047-081-094-103-104-040200-
CENTRAL COAST

CITY           SKY/WX    TMP DP  RH WIND       PRES   REMARKS
FRISCO         PTCLDY    70  67  90 SW9       29.77S
SWANQUARTER    NOT AVBL

$$

NCZ095-097-098-100-101-040200-
SOUTHERN COAST

CITY           SKY/WX    TMP DP  RH WIND       PRES   REMARKS
BEAUFORT       CLOUDY    71  70  96 SW13      29.77S
CEDAR ISLAND   NOT AVBL
JACKSONVILLE   MOCLDY    70  67  90 SW8       29.75F
PINEY ISLAND   NOT AVBL
WILMINGTON     PTCLDY    67  65  93 S6        29.78R


$$

NCZ011>013-027>030-043-044-078>080-089-090>093-098-040200-
COASTAL PLAIN

CITY           SKY/WX    TMP DP  RH WIND       PRES   REMARKS
AHOSKIE        CLOUDY    70  66  86 SE5       29.72S
CLINTON        CLOUDY    68  67  94 S3        29.75S
ELIZABETHTOWN  PTCLDY    71  64  78 SE3       29.77S
GOLDSBORO      CLOUDY    68  66  94 E10       29.74R
GREENVILLE     LGT RAIN  64  64 100 S12       29.81S
HAVELOCK       CLOUDY    70  67  90 SW3       29.78R
KENANSVILLE    MOCLDY    71  67  89 CALM      29.77R
KINSTON        CLOUDY    66  61  82 NE6       29.78R
NEW BERN       PTCLDY    68  65  90 CALM      29.78R
RICHLANDS      CLOUDY    69  67  93 S8        29.75F
ROCKY MOUNT    CLOUDY    63  62  97 S5        29.75R
WASHINGTON     HVY RAIN  69  67  94 S6        29.77R
WHITEVILLE     NOT AVBL

$$

AMZ130-135-150-152-154-156-158-170-250-252-270-ANZ085-086-088-633-658-670-040200-
MARINE OBSERVATIONS

STATION/POSITION TIME  TEMP    WIND        PRES    WAVE   SWELL
                       AIR SEA DIR/SP/G            HT/PER HT/PER
                 (UTC) (F)     (DEG/KT/KT) (MB)    (FT/S) (FT/S)
CHESAPEAKE LIGHT 0100   63     180/ 18/ 18 1007.2
64 E VA BEACH    0050   58 54  200/  8/ 10 1007.6    4/ 7   3/ 7
DUCK             NOT AVBL
2 E DUCK         0011      59                N/A     2/ 9
OREGON INLET     0100   70 72              1007.8
13E OREGON INLT  0100      62                N/A     3/ 8   2/ 8
HATTERAS CG      0100   70 69              1007.9
DIAMOND BUOY     0050   74 72  210/ 17/ 21 1008.0    4/ 4   2/ 8
CAPE LOOKOUT     0100   70     220/  8/ 11 1007.7
BEAUFORT LAB     0100   71 67              1007.1
30 SE NEW RVR IN 0025      71                N/A     5/ 8
27 SE WRIGHTSVLE 0108   73 73  220/ 12/ 16   N/A
5 SE WRIGHTSVLE  0108   71 70  210/ 10/ 14 1009.5
225 S CAPE HAT   0050   73 74  150/ 10/ 14 1012.3    4/ 7   3/ 7
41 SE CHARLESTON 0050   75 75  200/ 14/ 16 1008.2    4/ 9   2/ 9

$$



USA.gov is the U.S. government's official web portal to all federal, state and local government web resources and services.